FW1302 Weather Reports


Display with metric or nautical units.
time (UTC)temp
F
wind
direction
speed
MPH
gust
MPH
rain 1hr
in
rain 24hr
in
rain mn
in
humidity
%
barometer
mb
20260506102114 60 226 8.0 10.0 0.00 0.00 0.00 77 1028.1
20260506101116 60 228 7.0 10.0 0.00 0.00 0.00 77 1028.1
20260506095213 60 216 6.0 11.0 0.00 0.00 0.00 76 1028.0
20260506094215 60 225 7.0 10.0 0.00 0.00 0.00 76 1028.0
20260506093216 61 230 6.0 7.0 0.00 0.00 0.00 75 1028.1
20260506092314 61 229 8.0 11.0 0.00 0.00 0.00 75 1027.9
20260506091314 61 224 7.0 11.0 0.00 0.00 0.00 75 1027.9
20260506090414 61 225 5.0 9.0 0.00 0.00 0.00 75 1027.9
20260506085416 61 228 7.0 8.0 0.00 0.00 0.00 75 1028.0
20260506084414 61 228 8.0 11.0 0.00 0.00 0.00 75 1028.0
20260506083416 61 230 6.0 8.0 0.00 0.00 0.00 75 1028.1
20260506082514 61 225 5.0 7.0 0.00 0.00 0.00 74 1027.9
20260506081516 61 225 6.0 7.0 0.00 0.00 0.00 74 1027.8
20260506073515 61 232 7.0 9.0 0.00 0.00 0.00 74 1027.5
20260506072516 61 225 7.0 9.0 0.00 0.00 0.00 74 1027.5
20260506070616 61 225 5.0 7.0 0.00 0.00 0.00 73 1027.5
20260506061620 61 239 9.0 12.0 0.00 0.00 0.00 73 1027.2
20260506050722 61 225 9.0 11.0 0.00 0.00 0.00 74 1026.9
20260506044723 61 233 8.0 11.0 0.00 0.00 0.00 73 1026.7
20260506043721 61 226 7.0 12.0 0.00 0.00 0.00 73 1026.4
20260506042722 61 229 9.0 12.0 0.00 0.00 0.00 73 1026.4
20260506041721 61 232 8.0 12.0 0.00 0.00 0.00 73 1026.3
20260506040721 61 227 8.0 11.0 0.00 0.00 0.00 72 1026.4
20260506035723 61 225 8.0 10.0 0.00 0.00 0.00 72 1026.2
20260506034721 61 223 9.0 12.0 0.00 0.00 0.00 73 1026.1
20260506033723 61 224 7.0 10.0 0.00 0.00 0.00 73 1026.0
20260506032820 61 235 12.0 17.0 0.00 0.00 0.00 71 1025.8
20260506031823 61 225 9.0 18.0 0.00 0.00 0.00 72 1025.8
20260506030921 61 223 10.0 14.0 0.00 0.00 0.00 71 1025.7
20260506024023 62 226 10.0 15.0 0.00 0.00 0.00 70 1025.3
20260506023021 62 224 11.0 16.0 0.00 0.00 0.00 68 1025.1
20260506022022 63 228 12.0 16.0 0.00 0.00 0.00 69 1025.0
20260506020921 63 222 12.0 17.0 0.00 0.00 0.00 68 1025.0
20260506014923 63 218 12.0 17.0 0.00 0.00 0.00 68 1025.0
20260506013924 63 228 12.0 18.0 0.00 0.00 0.00 68 1025.0
20260506013021 64 224 14.0 18.0 0.00 0.00 0.00 68 1024.9
20260506012022 64 229 13.0 18.0 0.00 0.00 0.00 66 1024.7
20260506010021 64 223 11.0 16.0 0.00 0.00 0.00 67 1024.7
20260506005022 64 225 15.0 20.0 0.00 0.00 0.00 66 1024.7
20260506002022 64 213 13.0 20.0 0.00 0.00 0.00 66 1024.5
20260506001022 65 226 18.0 22.0 0.00 0.00 0.00 64 1024.6
20260506000022 65 222 16.0 21.0 0.00 0.00 0.00 65 1024.7
20260505235021 65 221 15.0 20.0 0.00 0.00 0.00 65 1024.8
20260505234921 65 225 17.0 22.0 0.00 0.00 0.00 65 1024.7
20260505233921 65 225 20.0 24.0 0.00 0.00 0.00 64 1024.9
20260505232922 65 226 16.0 20.0 0.00 0.00 0.00 65 1024.8
20260505231921 65 224 14.0 18.0 0.00 0.00 0.00 65 1024.7
20260505230922 65 221 16.0 21.0 0.00 0.00 0.00 65 1024.8
20260505230020 65 226 14.0 19.0 0.00 0.00 0.00 65 1025.0
20260505224120 65 219 18.0 21.0 0.00 0.00 0.00 66 1025.0
20260505224021 65 225 13.0 18.0 0.00 0.00 0.00 66 1025.1
20260505223120 64 222 12.0 19.0 0.00 0.00 0.00 66 1025.2
20260505222121 64 210 14.0 18.0 0.00 0.00 0.00 66 1025.2
20260505221123 64 217 15.0 21.0 0.00 0.00 0.00 66 1025.3
20260505220221 64 225 12.0 15.0 0.00 0.00 0.00 65 1025.5
20260505220120 64 234 15.0 23.0 0.00 0.00 0.00 66 1025.1
20260505214122 64 229 17.0 25.0 0.00 0.00 0.00 66 1025.5
20260505213121 64 226 16.0 23.0 0.00 0.00 0.00 65 1025.6
20260505212121 64 225 13.0 17.0 0.00 0.00 0.00 67 1025.7
20260505211122 63 230 13.0 18.0 0.00 0.00 0.00 67 1025.6
20260505210122 64 227 16.0 19.0 0.00 0.00 0.00 66 1025.9
20260505205122 64 224 14.0 17.0 0.00 0.00 0.00 65 1025.8
20260505204121 63 223 14.0 21.0 0.00 0.00 0.00 64 1026.0
20260505203120 63 226 15.0 21.0 0.00 0.00 0.00 65 1025.9
20260505202121 63 225 17.0 23.0 0.00 0.00 0.00 65 1026.2
20260505201120 63 220 11.0 15.0 0.00 0.00 0.00 67 1026.3
20260505201020 63 227 12.0 18.0 0.00 0.00 0.00 67 1026.2
20260505195120 62 220 12.0 16.0 0.00 0.00 0.00 68 1026.3
20260505194121 62 225 12.0 16.0 0.00 0.00 0.00 69 1026.3
20260505193022 62 206 12.0 20.0 0.00 0.00 0.00 70 1026.5
20260505191020 61 220 9.0 12.0 0.00 0.00 0.00 70 1026.6
20260505190021 61 224 14.0 18.0 0.00 0.00 0.00 70 1026.5
20260505185021 60 225 15.0 21.0 0.00 0.00 0.00 71 1026.6
20260505184020 60 226 12.0 18.0 0.00 0.00 0.00 71 1026.7
20260505183022 60 206 17.0 25.0 0.00 0.00 0.00 71 1026.6
20260505182120 60 227 13.0 20.0 0.00 0.00 0.00 72 1026.8
20260505181121 60 226 13.0 17.0 0.00 0.00 0.00 73 1026.7
20260505180221 60 222 12.0 15.0 0.00 0.00 0.00 74 1026.9
20260505180123 60 225 12.0 18.0 0.00 0.00 0.00 74 1026.7
20260505175220 59 221 13.0 20.0 0.00 0.00 0.00 75 1026.7
20260505174221 58 221 11.0 15.0 0.00 0.00 0.00 77 1026.7
20260505173222 58 211 12.0 15.0 0.00 0.00 0.00 78 1026.7
20260505171222 58 226 13.0 19.0 0.00 0.00 0.00 79 1026.7
20260505170221 57 212 12.0 16.0 0.00 0.00 0.00 80 1026.8
20260505165320 57 224 11.0 15.0 0.00 0.00 0.00 81 1026.6
20260505164322 57 224 12.0 15.0 0.00 0.00 0.00 81 1026.6
20260505163322 57 217 9.0 14.0 0.00 0.00 0.00 81 1026.7
20260505162322 57 218 9.0 14.0 0.00 0.00 0.00 81 1026.6
20260505161322 57 208 11.0 16.0 0.00 0.00 0.00 81 1026.6
20260505160321 57 221 9.0 13.0 0.00 0.00 0.00 82 1026.7
20260505153322 56 215 10.0 17.0 0.00 0.00 0.00 82 1026.6
20260505152322 56 220 11.0 15.0 0.00 0.00 0.00 81 1026.6
20260505151323 56 226 11.0 17.0 0.00 0.00 0.00 81 1026.1
20260505150421 56 225 10.0 12.0 0.00 0.00 0.00 82 1026.4
20260505140321 56 221 7.0 9.0 0.00 0.00 0.00 82 1025.8
20260505130227 56 225 10.0 13.0 0.00 0.00 0.00 81 1025.6
20260505124420 56 221 11.0 15.0 0.00 0.00 0.00 81 1025.4
20260505124321 56 224 9.0 13.0 0.00 0.00 0.00 81 1025.5
20260505123420 56 219 10.0 14.0 0.00 0.00 0.00 80 1025.4
20260505122420 57 224 10.0 12.0 0.00 0.00 0.00 81 1025.3
20260505121421 57 226 11.0 13.0 0.00 0.00 0.00 80 1025.4
20260505120422 57 223 11.0 13.0 0.00 0.00 0.00 80 1025.4
20260505115521 57 234 10.0 14.0 0.00 0.00 0.00 79 1025.2
20260505114521 57 226 12.0 18.0 0.00 0.00 0.00 79 1025.4
20260505113620 57 225 13.0 18.0 0.00 0.00 0.00 79 1025.3
20260505112622 58 226 9.0 12.0 0.00 0.00 0.00 77 1025.2
20260505111620 58 227 10.0 14.0 0.00 0.00 0.00 78 1025.1
20260505111521 58 225 13.0 16.0 0.00 0.00 0.00 78 1025.0
20260505110620 58 226 13.0 17.0 0.00 0.00 0.00 76 1025.0